Погода в Северокавказском

Россия / Краснодарский край     45°08′47″N   41°03′55″E
темп.,
°C
ветер,
м/с
пор.,
м/с
влажн.,
%
обл.,
%
осадки,
мм/ч
давл.,
гПа
погр.,
м
27 февраля, сб
сб2700:00+2зюз6159282 0.0 1023382
03:00+2зюз6168986 0.0 1022411
06:00+1зюз5158914 0.0 1020414
09:00+3зюз615857 0.0 1019519
12:00+8з814753 0.0 1018916
15:00+8з8147725 0.0 10161105
18:00+5зюз6168389 0.0 1016554
21:00+4з5158192 0.0 1017472
28 февраля, вс
вс2800:00+3з51593100 1.4 1016585
03:00+4з71592100 5.1 1016669
06:00+3з4698100 2.9 1016306
09:00+2ссз4698100 4.5 1017364
12:00+2зсз3497100 1.2 1017267
15:00+3зсз3490100 2.0 1018447
18:00+3з2385100 0.3 101988
21:00+2зсз249299 0.4 1020119
1 марта, пн
пн100:000зсз229253 0.0 102127
03:000юз249656 0.1 1022135
06:00+1зюз3597100 0.1 1023282
09:00+1з3592100 0.1 1025422
12:00+2з3482100 0.1 1025598
15:00+4зсз127497 0.2 1025639
18:00+2з0189100 0.3 102635
21:00+1ююв229377 0.3 102825
2 марта, вт
вт200:000юз359252 0.0 1028126
03:000зюз369961 0.0 1028192
06:00+1зюз469196 0.0 1029479
09:00+2зюз588288 0.1 1028676
12:00+4з696557 0.0 10271238
15:00+5з9136266 0.0 10251385
18:00+3з7137282 0.0 10241077
21:00+3з10177591 0.0 10231119
3 марта, ср
ср300:00+2зюз121981100 0.2 10211065
03:00+3зюз132186100 0.3 10191117
06:00+3з121996100 2.2 10181066
09:00+3зсз81397100 9.4 1019827
12:00+5зсз81267100 1.3 10201563
15:00+6зсз8116497 1.4 10201528
18:00+3сз497289 0.1 1022560
21:00+1з488673 0.1 1024245